This is the latest recevied weather packets stored in our database for station/object KC7WRB. If no packets are shown the sender has not sent any weather packets the latest 1 day(s).
| Time | Temp. | Humidity | Pressure | Rain* | Wind** | Luminosity | Snow |
|---|---|---|---|---|---|---|---|
| 1778044812 | 13.33° C | 61% | 1017.8 hPa | 0 mm | - | 0 W/m² | - |
| 1778044509 | 13.33° C | 62% | 1016.8 hPa | 0 mm | - | 0 W/m² | - |
| 1778043602 | 12.78° C | 62% | 1015 hPa | 0 mm | - | 0 W/m² | - |
| 1778043297 | 12.78° C | 66% | 1015.2 hPa | 0 mm | - | 0 W/m² | - |
| 1778042993 | 12.78° C | 65% | 1015 hPa | 0 mm | - | 0 W/m² | - |
| 1778042692 | 12.78° C | 66% | 1015.2 hPa | 0 mm | - | 0 W/m² | - |
| 1778042388 | 12.78° C | 64% | 1015 hPa | 0 mm | - | 0 W/m² | - |
| 1778041482 | 12.78° C | 64% | 1014.7 hPa | 0 mm | - | 0 W/m² | - |
| 1778041180 | 12.22° C | 67% | 1014.4 hPa | 0 mm | - | 0 W/m² | - |
| 1778040878 | 12.22° C | 69% | 1014.5 hPa | 0 mm | - | 0 W/m² | - |
| 1778040575 | 12.78° C | 68% | 1014.5 hPa | 0 mm | - | 0 W/m² | - |
| 1778040272 | 13.33° C | 65% | 1014.5 hPa | 0 mm | - | 0 W/m² | - |
| 1778039968 | 13.33° C | 63% | 1014.5 hPa | 0 mm | - | 0 W/m² | - |
| 1778039666 | 13.33° C | 63% | 1014.5 hPa | 0 mm | - | 0 W/m² | - |
| 1778039362 | 13.33° C | 64% | 1014.5 hPa | 0 mm | - | 0 W/m² | - |
| 1778039060 | 13.33° C | 63% | 1014.6 hPa | 0 mm | - | 0 W/m² | - |
| 1778038454 | 13.89° C | 62% | 1014.2 hPa | 0 mm | - | 0 W/m² | - |
| 1778038151 | 13.89° C | 61% | 1014.4 hPa | 0 mm | - | 0 W/m² | - |
| 1778037847 | 13.89° C | 61% | 1014.2 hPa | 0 mm | - | 0 W/m² | - |
| 1778037544 | 13.89° C | 61% | 1014 hPa | 0 mm | - | 0 W/m² | - |
| 1778036939 | 13.89° C | 60% | 1013.9 hPa | 0 mm | - | 0 W/m² | - |
| 1778036637 | 13.89° C | 61% | 1014.1 hPa | 0 mm | - | 1 W/m² | - |
| 1778036333 | 13.89° C | 62% | 1013.9 hPa | 0 mm | - | 2 W/m² | - |
| 1778036030 | 13.89° C | 62% | 1014 hPa | 0 mm | - | 4 W/m² | - |
| 1778035727 | 13.89° C | 62% | 1013.9 hPa | 0 mm | - | 7 W/m² | - |
* Rain latest hour (hover to see other rain measurements)
** Current wind speed in m/s (hover to see current wind gust speed)